Location: Praha
(50.0830°N, 14.4670°E)
Time: 11:54:47
(UTC+02:00)

ISS - Pass Details

Date: 20 September 2022
Orbit: 415 x 420 km, 51.6° (Epoch: 02 October)

Event Time Altitude Azimuth Distance (km) Brightness Sun altitude
Rises 21:09:05 0° 264° (W) 2,383 1.0 -20.0°
Reaches altitude 10° 21:11:12 10° 267° (W) 1,517 -0.1 -20.3°
Maximum altitude 21:14:36 71° 351° (N) 455 -3.6 -20.8°
Enters shadow 21:14:38 70° 358° (N) 455 -3.6 -20.8°
